Terminal Aerodrome Forecast
Issued by NWS Glasgow, MT

Home | Current Version | Previous Version | Text Only | Print | Product List | Glossary On
Versions: 1 2 3 4 5 6 7 8 9 10 11 12
000
FTUS45 KGGW 181700
TAFGGW
TAF
KGGW 181720Z 1818/1918 25008KT P6SM BKN130
     FM190600 VRB05KT P6SM SCT090
     FM191500 29013KT P6SM SCT140=

USA.gov is the U.S. government's official web portal to all federal, state and local government web resources and services.